Hettinger, ND

11:00 AM MST on December 07, 2016 (GMT -0700)
Hettinger Municipal

Weather History for KHEI - March, 2012

Change the Weather History Date:

Sunday, March 25, 2012

  Actual Average Record
Temperature  
Mean Temperature 37 °F -  
Max Temperature 47 °F 45 °F 78 °F (2007)
Min Temperature 27 °F 21 °F 4 °F (2014)
Degree Days  
Heating Degree Days 28 32  
Month to date heating degree days 569 911  
Since 1 July heating degree days 6214 7227  
Cooling Degree Days 0 0  
Month to date cooling degree days 0 0  
Year to date cooling degree days 0 0  
Moisture  
Dew Point 28 °F    
Average Humidity 75    
Maximum Humidity 92    
Minimum Humidity 49    
Precipitation  
Precipitation 0.00 in 0.04 in 0.01 in (2011)
Month to date precipitation 0.09 0.56  
Year to date precipitation 0.70 1.29  
Sea Level Pressure  
Sea Level Pressure 30.14 in    
Wind  
Wind Speed 14 mph (East)    
Max Wind Speed 23 mph    
Max Gust Speed 31 mph    
Visibility 7 miles    
Events Fog    
T = Trace of Precipitation, MM = Missing Value Source: NWS Daily Summary

Daily Weather History Graph

Daily Weather History Graph

Search for Another Location

Airport or City:

Trip Planner

Search our weather history database for the weather conditions in past years. The results will help you decide how hot, cold, wet, or windy it might be!

Date:

Astronomy

Mar. 25, 2012 Rise Set
Actual Time 6:42 AM MDT 7:10 PM MDT
Civil Twilight 6:13 AM MDT 7:40 PM MDT
Nautical Twilight 5:37 AM MDT 8:16 PM MDT
Astronomical Twilight 5:01 AM MDT 8:52 PM MDT
Moon 7:44 AM MDT (3/25) 10:42 PM MDT (3/25)
Length of Visible Light 13h 27m
Length of Day
12h 27m
Waxing Crescent, 9% of the Moon is Illuminated
Mar 25
Waxing Crescent
Mar 30
First Quarter
Apr 6
Full
Apr 13
Last Quarter
Apr 21
New

Hourly Weather History & Observations

Time (MDT) Temp. Windchill Dew Point Humidity Pressure Visibility Wind Dir Wind Speed Gust Speed Precip Events Conditions
12:53 AM 32.0 °F 22.5 °F 26.1 °F 79% 30.22 in 10.0 mi ESE 12.7 mph - N/A   Clear
1:53 AM 32.0 °F 22.5 °F 26.1 °F 79% 30.20 in 10.0 mi East 12.7 mph - N/A   Clear
2:53 AM 30.0 °F 21.1 °F 26.1 °F 85% 30.18 in 10.0 mi East 10.4 mph - N/A   Clear
3:53 AM 28.9 °F 19.8 °F 26.1 °F 89% 30.17 in 10.0 mi East 10.4 mph - N/A   Clear
4:53 AM 28.9 °F 19.2 °F 25.0 °F 85% 30.17 in 9.0 mi East 11.5 mph - N/A   Clear
5:44 AM 26.6 °F 18.2 °F 24.8 °F 93% 30.13 in 8.0 mi East 8.1 mph - N/A   Scattered Clouds
5:53 AM 28.0 °F 19.3 °F 25.0 °F 88% 30.18 in 8.0 mi East 9.2 mph - N/A   Mostly Cloudy
6:53 AM 30.0 °F 20.5 °F 27.0 °F 88% 30.19 in 7.0 mi East 11.5 mph - N/A   Overcast
7:53 AM 30.0 °F 20.5 °F 27.0 °F 88% 30.21 in 6.0 mi East 11.5 mph - N/A   Overcast
8:12 AM 30.2 °F 21.9 °F 26.6 °F 86% 30.14 in 4.0 mi East 9.2 mph - N/A   Overcast
8:20 AM 30.2 °F 19.8 °F 28.4 °F 93% 30.14 in 1.8 mi East 13.8 mph - N/A   Overcast
8:30 AM 30.2 °F 21.3 °F 28.4 °F 93% 30.14 in 0.5 mi East 10.4 mph - N/A Fog Light Freezing Fog
8:42 AM 30.2 °F 20.2 °F 28.4 °F 93% 30.14 in 0.2 mi East 12.7 mph - N/A Fog Light Freezing Fog
8:53 AM 30.0 °F 18.7 °F 28.9 °F 96% 30.20 in 0.2 mi East 16.1 mph - N/A Fog Light Freezing Fog
9:13 AM 30.2 °F 19.8 °F 28.4 °F 93% 30.14 in 0.5 mi East 13.8 mph - N/A Fog Light Freezing Fog
9:26 AM 30.2 °F 19.3 °F 28.4 °F 93% 30.13 in 0.2 mi East 15.0 mph - N/A Fog Light Freezing Fog
9:37 AM 30.2 °F 20.2 °F 28.4 °F 93% 30.14 in 0.2 mi East 12.7 mph - N/A Fog Light Freezing Fog
9:53 AM 30.9 °F 21.7 °F 28.9 °F 92% 30.22 in 0.5 mi East 11.5 mph - N/A Fog Light Freezing Fog
10:15 AM 32.0 °F 22.5 °F 30.2 °F 93% 30.15 in 1.0 mi East 12.7 mph 19.6 mph N/A   Overcast
10:27 AM 32.0 °F 22.1 °F 30.2 °F 93% 30.15 in 3.0 mi East 13.8 mph 18.4 mph N/A   Overcast
10:53 AM 35.1 °F 25.2 °F 30.0 °F 82% 30.21 in 10.0 mi ESE 16.1 mph 21.9 mph N/A   Overcast
11:20 AM 35.6 °F 26.6 °F 30.2 °F 81% 30.13 in 10.0 mi ESE 13.8 mph - N/A   Overcast
11:50 AM 39.2 °F 30.5 °F 30.2 °F 70% 30.11 in 10.0 mi East 16.1 mph 19.6 mph N/A   Overcast
11:53 AM 39.0 °F 31.8 °F 30.0 °F 70% 30.19 in 10.0 mi East 11.5 mph 19.6 mph N/A   Overcast
12:45 PM 41.0 °F 33.1 °F 28.4 °F 61% 30.10 in 10.0 mi ESE 15.0 mph - N/A   Overcast
12:53 PM 41.0 °F 33.1 °F 28.0 °F 60% 30.16 in 10.0 mi ESE 15.0 mph - N/A   Overcast
1:11 PM 42.8 °F 35.1 °F 28.4 °F 57% 30.09 in 10.0 mi East 16.1 mph - N/A   Overcast
1:53 PM 43.0 °F 35.4 °F 28.0 °F 56% 30.14 in 10.0 mi East 16.1 mph 23.0 mph N/A   Overcast
2:53 PM 44.1 °F 36.8 °F 28.0 °F 53% 30.12 in 10.0 mi ESE 16.1 mph 23.0 mph N/A   Overcast
3:53 PM 45.0 °F 37.9 °F 27.0 °F 49% 30.10 in 10.0 mi East 16.1 mph 26.5 mph N/A   Overcast
4:00 PM 46.4 °F 39.5 °F 26.6 °F 46% 30.04 in 10.0 mi East 17.3 mph 27.6 mph N/A   Overcast
4:53 PM 45.0 °F 37.4 °F 27.0 °F 49% 30.09 in 10.0 mi East 18.4 mph 26.5 mph N/A   Overcast
5:53 PM 43.0 °F 35.1 °F 26.1 °F 51% 30.10 in 10.0 mi ESE 17.3 mph 25.3 mph N/A   Overcast
6:53 PM 42.1 °F 34.2 °F 28.0 °F 58% 30.10 in 10.0 mi ESE 16.1 mph 23.0 mph N/A   Overcast
7:53 PM 41.0 °F 33.5 °F 27.0 °F 57% 30.10 in 10.0 mi ESE 13.8 mph 27.6 mph N/A   Overcast
8:53 PM 39.9 °F 31.8 °F 26.1 °F 58% 30.10 in 10.0 mi ESE 15.0 mph - N/A   Overcast
9:53 PM 39.0 °F 29.9 °F 26.1 °F 60% 30.11 in 10.0 mi SE 17.3 mph 24.2 mph N/A   Overcast
10:53 PM 37.9 °F 28.2 °F 25.0 °F 60% 30.07 in 10.0 mi ESE 18.4 mph 25.3 mph N/A   Overcast
11:53 PM 37.9 °F 29.2 °F 24.1 °F 57% 30.04 in 10.0 mi ESE 15.0 mph 24.2 mph N/A   Overcast